contact:dominique.lefevre@mio.osupytheas.fr, maurice.libes@osupytheas.fr
Project:EMSO Ligure-ouest http://www.emso-fr.org/EMSO-France
Sensor Aquadopp, line 13 Serial AQD14315 
DOI : "https://doi.org/10.17882/74513; https://doi.org/10.17882/83244" 
Title:EMSO Ligure Ouest : Data ligne ALBATROSS capteur AQUADOPP - deploiement 2021
Id,Date,Profondeur,Latitude,Longitude,X_East,Y_North,Z_Up,Amplitude_X,Amplitude_Y,Amplitude_Z,Batterie,SoundSpeed,Heading,Pitch,Roll,Pressure,Temperature,Speed,Direction
, , m, degrees North, degrees East, m.s-1, m.s-1,m.s-1, 1, 1, 1, Volt, m.s-1, degree, degree, degree, dbar, degree_C, m.s-1, degree
13,2022-09-09T00:00:00,2400.0,42.79,6.0312,0.01,0.003,-0.001,69.0,58.0,63.0,12.9,1504.9,25.0,0.1,-0.4,2392.997,13.34,0.01,73.3
13,2022-09-09T00:30:00,2400.0,42.79,6.0312,0.028,-0.008,0.0,67.0,59.0,62.0,12.9,1504.9,22.1,0.0,-0.4,2392.935,13.34,0.029,105.9
13,2022-09-09T01:00:00,2400.0,42.79,6.0312,0.007,0.009,-0.024,69.0,58.0,63.0,12.9,1504.9,25.0,0.0,-0.4,2392.882,13.34,0.011,37.9
13,2022-09-09T01:30:00,2400.0,42.79,6.0312,0.001,0.023,-0.018,66.0,57.0,62.0,12.9,1504.9,25.8,0.0,-0.3,2392.935,13.34,0.023,2.5
13,2022-09-09T02:00:00,2400.0,42.79,6.0312,0.02,0.002,-0.031,65.0,61.0,63.0,12.9,1504.9,26.8,0.1,-0.3,2392.96,13.34,0.02,84.3
13,2022-09-09T02:30:00,2400.0,42.79,6.0312,0.008,-0.019,-0.005,68.0,60.0,65.0,12.9,1504.9,24.9,-0.1,-0.5,2392.931,13.34,0.02,157.2
13,2022-09-09T03:00:00,2400.0,42.79,6.0312,0.006,-0.006,0.002,65.0,61.0,62.0,12.9,1504.9,23.8,0.0,-0.4,2392.997,13.34,0.008,135.0
13,2022-09-09T03:30:00,2400.0,42.79,6.0312,0.025,-0.008,-0.017,64.0,60.0,59.0,12.9,1504.9,24.9,0.1,-0.4,2393.0,13.34,0.026,107.7
13,2022-09-09T04:00:00,2400.0,42.79,6.0312,0.01,-0.013,0.001,65.0,58.0,57.0,12.9,1504.9,26.9,0.1,-0.3,2393.034,13.34,0.016,142.4
13,2022-09-09T04:30:00,2400.0,42.79,6.0312,0.015,0.008,-0.033,65.0,60.0,60.0,12.9,1504.9,18.1,0.1,-0.3,2393.055,13.34,0.017,61.9
13,2022-09-09T05:00:00,2400.0,42.79,6.0312,0.021,0.009,-0.034,66.0,58.0,66.0,12.9,1504.9,16.4,0.0,-0.4,2393.034,13.34,0.022,66.8
13,2022-09-09T05:30:00,2400.0,42.79,6.0312,0.01,0.008,-0.057,67.0,57.0,62.0,12.9,1504.9,17.0,0.1,-0.4,2393.051,13.34,0.012,51.3
13,2022-09-09T06:00:00,2400.0,42.79,6.0312,0.029,0.008,0.0,64.0,57.0,61.0,12.9,1504.9,19.3,0.0,-0.4,2393.1,13.34,0.03,74.6
13,2022-09-09T06:30:00,2400.0,42.79,6.0312,0.004,-0.004,0.002,69.0,59.0,59.0,12.9,1504.9,23.8,0.0,-0.4,2393.061,13.34,0.005,135.0
13,2022-09-09T07:00:00,2400.0,42.79,6.0312,0.008,-0.01,-0.022,67.0,60.0,61.0,12.9,1504.9,25.7,0.0,-0.3,2393.067,13.34,0.012,141.3
13,2022-09-09T07:30:00,2400.0,42.79,6.0312,0.002,-0.019,-0.012,66.0,62.0,61.0,12.9,1504.9,31.0,0.0,-0.4,2393.028,13.34,0.019,174.0
13,2022-09-09T08:00:00,2400.0,42.79,6.0312,0.008,-0.006,0.02,61.0,56.0,59.0,12.9,1504.9,33.0,0.0,-0.5,2393.074,13.34,0.01,126.9
13,2022-09-09T08:30:00,2400.0,42.79,6.0312,0.037,-0.003,0.0,65.0,56.0,59.0,12.9,1504.9,35.9,0.1,-0.3,2393.048,13.34,0.037,94.6
13,2022-09-09T09:00:00,2400.0,42.79,6.0312,0.007,0.013,-0.001,67.0,56.0,58.0,12.9,1504.9,36.0,0.0,-0.4,2392.996,13.34,0.014,28.3
13,2022-09-09T09:30:00,2400.0,42.79,6.0312,0.023,-0.011,-0.006,64.0,58.0,62.0,12.9,1504.9,40.2,0.0,-0.4,2393.028,13.34,0.025,115.6
13,2022-09-09T10:00:00,2400.0,42.79,6.0312,0.001,-0.004,-0.002,66.0,58.0,59.0,12.9,1504.9,47.2,0.1,-0.4,2392.993,13.34,0.004,166.0
13,2022-09-09T10:30:00,2400.0,42.79,6.0312,0.019,-0.001,-0.014,65.0,57.0,60.0,12.9,1504.9,55.4,0.0,-0.3,2392.978,13.34,0.019,93.0
13,2022-09-09T11:00:00,2400.0,42.79,6.0312,0.035,-0.002,0.002,62.0,57.0,61.0,12.9,1504.9,57.7,0.0,-0.3,2392.895,13.34,0.035,93.3
13,2022-09-09T11:30:00,2400.0,42.79,6.0312,0.016,-0.002,-0.026,64.0,57.0,57.0,12.9,1504.9,61.9,0.1,-0.4,2392.923,13.34,0.016,97.1
13,2022-09-09T12:00:00,2400.0,42.79,6.0312,0.005,-0.01,0.002,63.0,54.0,60.0,12.9,1504.9,63.9,0.1,-0.4,2392.909,13.34,0.011,153.4
13,2022-09-09T12:30:00,2400.0,42.79,6.0312,0.008,-0.009,-0.023,63.0,54.0,56.0,12.9,1504.9,82.4,0.1,-0.4,2392.891,13.34,0.012,138.4
13,2022-09-09T13:00:00,2400.0,42.79,6.0312,0.01,0.008,-0.024,60.0,56.0,60.0,12.9,1504.9,121.9,0.0,-0.4,2392.932,13.34,0.012,51.3
13,2022-09-09T13:30:00,2400.0,42.79,6.0312,0.016,-0.006,0.007,69.0,62.0,59.0,12.9,1504.9,139.1,0.0,-0.4,2392.949,13.34,0.017,110.6
13,2022-09-09T14:00:00,2400.0,42.79,6.0312,0.004,0.026,-0.012,66.0,55.0,56.0,12.9,1504.9,133.4,0.0,-0.3,2392.937,13.34,0.026,8.7
13,2022-09-09T14:30:00,2400.0,42.79,6.0312,0.017,-0.001,0.008,61.0,52.0,56.0,12.9,1504.9,130.2,0.0,-0.3,2392.953,13.34,0.017,93.4
13,2022-09-09T15:00:00,2400.0,42.79,6.0312,0.011,0.014,-0.012,65.0,55.0,56.0,12.9,1504.9,129.5,0.0,-0.4,2392.972,13.34,0.017,38.2
13,2022-09-09T15:30:00,2400.0,42.79,6.0312,0.012,0.022,0.004,61.0,56.0,60.0,12.9,1504.9,127.7,0.0,-0.3,2393.046,13.34,0.025,28.6
13,2022-09-09T16:00:00,2400.0,42.79,6.0312,0.026,0.023,-0.008,65.0,55.0,56.0,12.9,1504.9,124.1,0.1,-0.3,2393.042,13.34,0.034,48.5
13,2022-09-09T16:30:00,2400.0,42.79,6.0312,0.0,0.0,-0.031,64.0,54.0,55.0,12.9,1504.9,121.4,0.0,-0.4,2393.158,13.34,0.0,0.0
13,2022-09-09T17:00:00,2400.0,42.79,6.0312,0.001,0.023,0.015,66.0,57.0,58.0,12.9,1504.9,120.4,0.0,-0.3,2393.109,13.34,0.023,2.5
13,2022-09-09T17:30:00,2400.0,42.79,6.0312,0.02,0.012,-0.016,65.0,59.0,62.0,12.9,1504.9,123.9,0.0,-0.3,2393.154,13.34,0.023,59.0
13,2022-09-09T18:00:00,2400.0,42.79,6.0312,0.024,0.02,-0.016,67.0,60.0,63.0,12.9,1504.9,134.3,0.0,-0.4,2393.161,13.34,0.031,50.2
13,2022-09-09T18:30:00,2400.0,42.79,6.0312,0.012,0.01,-0.005,67.0,54.0,58.0,12.9,1504.9,134.0,0.0,-0.2,2393.156,13.34,0.015,50.2
13,2022-09-09T19:00:00,2400.0,42.79,6.0312,0.019,0.014,-0.006,68.0,58.0,61.0,12.9,1504.9,134.7,0.0,-0.4,2393.167,13.34,0.023,53.6
13,2022-09-09T19:30:00,2400.0,42.79,6.0312,0.03,0.021,-0.03,65.0,55.0,60.0,12.9,1504.9,135.8,0.1,-0.3,2393.155,13.34,0.036,55.0
13,2022-09-09T20:00:00,2400.0,42.79,6.0312,0.004,-0.007,0.011,63.0,55.0,59.0,12.9,1504.9,130.2,0.1,-0.4,2393.194,13.34,0.008,150.3
13,2022-09-09T20:30:00,2400.0,42.79,6.0312,0.005,0.003,-0.027,61.0,58.0,56.0,12.9,1504.9,125.2,0.1,-0.4,2393.172,13.34,0.005,59.0
13,2022-09-09T21:00:00,2400.0,42.79,6.0312,0.029,0.002,-0.01,65.0,56.0,57.0,12.9,1504.9,123.6,0.1,-0.3,2393.141,13.34,0.029,86.1
13,2022-09-09T21:30:00,2400.0,42.79,6.0312,0.01,0.01,-0.021,66.0,58.0,59.0,12.9,1504.9,125.7,0.1,-0.4,2393.117,13.34,0.014,45.0
13,2022-09-09T22:00:00,2400.0,42.79,6.0312,0.033,0.005,-0.008,65.0,54.0,59.0,12.9,1504.9,127.4,0.1,-0.2,2393.077,13.34,0.033,81.4
13,2022-09-09T22:30:00,2400.0,42.79,6.0312,0.003,-0.002,-0.003,66.0,58.0,61.0,12.9,1504.9,130.5,0.1,-0.3,2393.026,13.34,0.003,123.7
13,2022-09-09T23:00:00,2400.0,42.79,6.0312,0.019,0.01,0.003,67.0,59.0,59.0,12.9,1504.9,127.1,0.1,-0.3,2393.006,13.34,0.021,62.2
